Location: Abbey Hill
(34.0751°N, 84.0688°W)
Time: 11:51:29
(UTC+00:00)

Envisat - Pass Details

Date: 03 October 2021
Orbit: 764 x 766 km, 98.2° (Epoch: 20 October)

Event Time Altitude Azimuth Distance (km) Brightness Sun altitude
Rises 10:42:33 0° 12° (NNE) 3,234 6.4 -11.2°
Reaches altitude 10° 10:44:52 10° 12° (NNE) 2,304 5.7 -10.7°
Maximum altitude 10:49:57 88° 283° (WNW) 769 3.0 -9.6°
Drops below altitude 10° 10:55:01 10° 194° (SSW) 2,290 5.3 -8.6°
Sets 10:57:18 0° 194° (SSW) 3,213 6.1 -8.1°
